Vertical_Velocity
-0 -0 -1 -0 -1 -0 -0 0 -2 -1 -1 -1 -1 0 -2 0 -0 0 1 -1 1 1 2 1 1 1 0 1 1 -1 3 2 0 -0 -0 -1 0 -1 -0 0 -2 -1 -1
1 1 -1 -0 -1 -1 -2 -1 -0 -0 -0 -0 -1 -0 -0 -0 0 1 2 -0 0 -0 -0 1 1 2 1 2 1 1 -2 -1 1 2 0 1 0 0 1 -2 0 -2 -1
0 0 -1 -1 -2 -1 -1 -1 -0 -2 -1 -0 0 -1 -1 0 1 1 0 0 -0 1 0 1 0 1 2 2 1 2 1 1 1 1 -1 0 -0 1 -1 -2 -0 -2 1
-1 0 -1 -2 -1 -1 -1 -1 -2 -0 -1 -1 -1 -1 -0 -2 -0 1 2 1 -0 -0 1 1 -1 0 -0 -0 1 -1 -2 -3 -0 -1 2 -1 -1 -0 -1 -2 -1 -2 -2
0 -0 -0 -1 -1 -1 -0 -2 -2 -2 -1 -1 -0 -1 -1 -2 -0 -0 -0 -1 -0 -1 -0 -1 -2 -1 -2 -3 -2 -2 -1 -2 1 0 -0 -0 1 -1 -1 2 -1 -1 1
-0 -1 -1 -1 -1 -1 -1 -2 -1 -1 -1 -1 1 -1 -1 -3 -2 0 -1 1 1 -1 -1 -0 -0 -1 -1 -1 -1 0 0 -0 1 0 1 -1 -0 1 -2 -1 -3 1 2
0 -1 -1 -1 -1 -1 -2 -0 -2 -2 -0 -1 -1 -2 -1 -2 -1 -2 -0 -1 0 -0 -1 -0 -1 1 -1 0 0 1 1 1 -1 -1 1 2 -0 -1 1 3 1 -4 1
0 -1 -2 -1 -1 -1 -0 -2 -1 1 -0 -2 -2 0 1 -1 -0 1 -1 0 -1 1 1 0 1 0 1 1 2 1 1 0 0 -1 -1 0 1 0 1 -0 -1 0 -2
0 1 -0 -0 -0 -2 -1 -3 0 -0 0 -1 -1 0 -1 -1 -1 1 -1 2 1 1 1 0 2 0 2 1 1 -0 0 1 -1 -2 -1 -2 -0 -1 -0 1 -2 0 -2
0 0 -2 -0 1 -2 0 -1 -1 1 1 -3 0 1 -0 0 -3 -0 -1 2 1 0 1 -0 1 -1 -1 -0 2 1 -0 0 -1 -1 -1 -0 -2 -2 -2 -1 1 1 -0
1 1 -0 -1 1 -0 -2 2 -1 -2 1 -1 -0 2 -1 2 -1 -2 -1 0 1 1 -1 2 0 2 1 0 1 1 1 1 1 0 -2 -2 0 -1 -1 1 3 0 2
-0 2 -0 -4 2 0 -0 2 -1 1 -1 1 0 3 0 -0 -1 -0 0 -1 -2 -0 -0 -1 -3 -1 -1 -0 -0 1 0 -1 0 1 -1 -1 -1 0 3 3 -0 0 -1
-4 0 1 -1 -0 0 -1 2 -0 1 -1 -1 2 0 -1 1 1 -1 -3 -0 2 1 -1 -0 -0 0 0 0 0 1 1 2 1 0 1 -0 -0 4 2 1 -2 1 -0
0 -2 4 2 2 -1 -2 1 -0 2 1 1 -1 -0 -2 -1 1 2 1 -0 -1 -1 -2 -2 -3 -4 -3 -0 0 -2 0 -1 -1 -0 1 1 2 -2 -2 1 -0 -1 -0
2 -3 0 2 3 2 -0 0 2 2 -0 -1 1 -1 -0 -1 -2 -4 -6 -1 0 -1 -1 -0 -1 -1 -0 -1 -2 2 1 -2 -1 3 3 0 -2 1 4 1 1 1 -1
0 1 -1 1 1 1 1 1 4 1 -1 -0 -1 1 -0 -1 -2 -1 -1 1 2 -1 1 1 -0 -0 1 0 -2 -0 -0 -2 1 1 1 -0 1 2 1 3 2 2 -0
2 0 3 0 -0 -0 1 1 5 1 -1 -2 -1 1 -2 -4 -1 1 -2 -1 -1 -0 0 -1 -1 1 2 2 2 -0 -2 -0 3 -0 1 0 -0 0 -0 -2 -1 2 -3
2 1 2 2 -1 -2 1 1 2 -3 1 -1 0 -2 -1 -2 -0 -1 -1 -1 -1 -1 -2 -0 1 -2 0 1 1 0 -1 1 -1 -0 1 -2 1 -0 -1 -1 -0 -0 1
-2 0 3 -1 0 1 0 1 2 -2 0 -2 -0 -3 1 -0 1 -1 -0 0 1 1 1 -2 -3 2 2 -1 1 -0 -2 2 -0 1 -0 -1 0 -1 3 -1 1 -0 -0
-1 2 2 -0 1 1 -3 2 3 -0 -1 -1 -2 -1 1 -0 -1 -1 -2 -1 -2 -1 -2 -2 -2 -2 2 2 2 1 -2 3 0 2 -2 1 -0 1 0 -0 0 -1 0
-1 1 2 4 3 -0 -2 4 1 -1 0 -3 -0 -0 -0 1 -1 -1 -1 -1 -2 -1 0 -0 -2 -4 -0 1 3 -2 -4 -1 -2 -0 -4 1 -4 -2 -4 -2 -5 -5 -2
-2 1 2 1 -1 -1 2 1 2 0 -1 1 0 -1 -0 -1 -2 -1 -2 -1 -0 -0 -0 -0 -1 -3 -6 0 2 3 11 -5 1 -5 -4 -2 -4 -1 -2 -1 0 0 -1
-0 1 2 -1 2 0 0 1 2 -1 1 1 -1 0 -1 -1 -1 -1 -0 -0 -1 -1 -2 -2 -1 -0 -4 -8 -3 -4 0 9 6 5 5 4 -0 5 4 2 2 1 0
0 2 1 0 1 -0 1 0 -1 1 1 -1 -0 -1 -1 -1 -1 -1 -1 -1 -2 -2 -2 -1 -0 0 -0 -4 -10 -10 -11 -11 -9 15 37 9 -5 1 2 2 1 0 -1
1 3 2 0 1 0 -2 -0 1 -0 -1 0 -1 -1 0 -1 -1 -1 -2 -2 -2 -1 -1 -2 -3 -4 -1 -2 -1 -1 -6 -8 -13 -18 -5 24 16 2 -2 -3 1 -2 -1
3 3 2 1 1 -0 -0 2 0 -1 1 1 -1 -1 -1 -1 -2 -2 -2 -1 -1 -1 -1 -1 -2 -2 -1 -2 -1 -3 -1 1 7 -9 -15 -8 -16 13 16 16 10 -0 -2
Height
5857 5857 5857 5857 5856 5856 5855 5855 5853 5851 5850 5849 5850 5849 5849 5849 5849 5850 5850 5850 5850 5850 5850 5850 5850 5850 5850 5850 5850 5849 5849 5848 5847 5846 5845 5844 5842 5841 5840 5839 5837 5836 5835
5854 5854 5854 5853 5853 5852 5852 5851 5850 5848 5848 5847 5847 5847 5847 5846 5847 5848 5847 5847 5847 5847 5847 5847 5846 5846 5845 5846 5845 5845 5844 5844 5843 5842 5841 5840 5839 5838 5837 5836 5835 5834 5833
5851 5851 5851 5850 5849 5849 5849 5848 5848 5847 5846 5845 5844 5844 5844 5844 5844 5845 5844 5843 5843 5843 5843 5843 5842 5842 5841 5840 5840 5840 5840 5839 5839 5838 5837 5835 5834 5834 5833 5833 5832 5831 5830
5848 5848 5848 5847 5846 5846 5847 5847 5847 5846 5845 5844 5842 5843 5842 5842 5841 5841 5841 5840 5840 5840 5839 5839 5839 5838 5838 5837 5837 5836 5836 5835 5834 5833 5831 5831 5830 5829 5829 5829 5828 5827 5826
5844 5844 5844 5843 5842 5843 5844 5845 5844 5844 5842 5842 5841 5840 5841 5840 5839 5838 5837 5837 5838 5837 5837 5836 5835 5835 5835 5834 5833 5832 5831 5829 5829 5828 5826 5826 5825 5825 5824 5824 5824 5822 5822
5841 5841 5840 5840 5840 5841 5842 5843 5841 5842 5841 5840 5839 5838 5838 5838 5837 5836 5835 5835 5835 5834 5834 5833 5833 5832 5831 5830 5828 5827 5825 5824 5823 5823 5822 5821 5820 5820 5819 5818 5819 5817 5816
5836 5837 5837 5837 5837 5838 5839 5840 5839 5839 5838 5837 5837 5836 5836 5836 5835 5834 5833 5833 5832 5831 5831 5830 5829 5828 5827 5825 5824 5822 5821 5820 5819 5818 5817 5816 5814 5814 5814 5813 5811 5811 5811
5834 5833 5833 5834 5834 5835 5836 5837 5836 5837 5836 5835 5835 5834 5834 5834 5832 5831 5830 5829 5829 5828 5827 5826 5825 5824 5822 5821 5819 5818 5816 5815 5813 5812 5811 5810 5809 5808 5807 5807 5805 5804 5803
5831 5831 5830 5830 5831 5832 5833 5834 5833 5834 5834 5834 5833 5832 5832 5831 5829 5828 5827 5825 5824 5823 5822 5821 5820 5818 5817 5816 5814 5812 5810 5809 5807 5806 5805 5803 5803 5802 5800 5799 5798 5797 5795
5826 5827 5827 5827 5828 5828 5830 5830 5830 5830 5831 5832 5830 5830 5830 5828 5827 5825 5824 5822 5820 5818 5817 5816 5814 5812 5811 5810 5808 5806 5804 5802 5800 5799 5797 5796 5795 5794 5792 5790 5789 5787 5786
5823 5822 5823 5823 5823 5825 5825 5826 5827 5827 5828 5828 5827 5827 5826 5825 5824 5822 5820 5818 5816 5814 5813 5811 5809 5807 5805 5803 5801 5800 5797 5795 5794 5792 5789 5788 5786 5785 5783 5781 5779 5777 5775
5820 5819 5818 5819 5819 5820 5820 5822 5823 5825 5824 5824 5823 5823 5822 5820 5819 5818 5816 5813 5812 5810 5808 5806 5804 5802 5799 5797 5795 5792 5790 5788 5786 5783 5781 5779 5777 5776 5774 5771 5770 5768 5767
5815 5815 5814 5814 5815 5815 5816 5818 5819 5820 5820 5820 5820 5819 5818 5816 5815 5813 5810 5809 5807 5805 5803 5801 5798 5795 5793 5790 5787 5785 5782 5780 5777 5775 5773 5770 5768 5766 5765 5764 5761 5759 5758
5807 5810 5810 5809 5809 5811 5812 5814 5816 5816 5816 5816 5815 5815 5814 5813 5811 5808 5805 5803 5801 5799 5797 5794 5791 5788 5785 5782 5780 5777 5774 5772 5769 5767 5765 5763 5760 5758 5756 5754 5752 5752 5750
5802 5803 5804 5806 5806 5807 5807 5809 5810 5811 5811 5811 5811 5810 5809 5807 5805 5802 5799 5797 5795 5793 5791 5788 5785 5781 5778 5775 5772 5769 5767 5764 5761 5760 5758 5755 5753 5751 5748 5746 5744 5742 5740
5797 5797 5797 5799 5801 5803 5803 5804 5805 5806 5806 5806 5806 5805 5804 5802 5799 5796 5793 5790 5789 5786 5785 5782 5778 5774 5771 5768 5765 5763 5760 5757 5755 5753 5750 5747 5745 5742 5740 5738 5735 5733 5730
5792 5792 5792 5793 5796 5797 5798 5799 5800 5801 5801 5801 5801 5799 5798 5795 5792 5789 5787 5785 5783 5781 5778 5775 5771 5768 5764 5761 5758 5756 5752 5750 5748 5745 5742 5739 5736 5733 5731 5728 5725 5724 5720
5787 5786 5787 5788 5790 5792 5793 5793 5794 5795 5796 5795 5795 5793 5791 5787 5784 5783 5781 5779 5777 5774 5771 5768 5764 5759 5757 5754 5751 5747 5744 5742 5739 5736 5733 5730 5727 5724 5721 5718 5715 5712 5709
5780 5781 5782 5783 5784 5786 5788 5788 5789 5789 5790 5789 5788 5787 5784 5781 5778 5776 5774 5772 5769 5766 5763 5759 5755 5752 5749 5746 5743 5739 5736 5733 5729 5726 5723 5720 5716 5713 5710 5706 5703 5699 5696
5774 5775 5777 5777 5779 5781 5781 5782 5783 5784 5784 5783 5781 5779 5776 5774 5772 5770 5767 5764 5762 5759 5755 5751 5747 5742 5741 5738 5735 5731 5727 5724 5720 5717 5713 5709 5705 5701 5696 5692 5688 5683 5679
5767 5769 5771 5773 5774 5775 5776 5777 5777 5778 5777 5776 5774 5771 5770 5767 5765 5763 5759 5756 5753 5749 5745 5741 5737 5732 5729 5728 5726 5721 5717 5713 5710 5706 5701 5696 5691 5686 5681 5675 5670 5665 5660
5760 5762 5764 5767 5768 5769 5770 5771 5772 5772 5771 5769 5766 5765 5763 5761 5758 5755 5751 5748 5743 5738 5734 5731 5728 5724 5719 5718 5716 5713 5711 5705 5699 5694 5688 5683 5677 5672 5665 5659 5653 5646 5641
5754 5755 5758 5760 5761 5762 5764 5764 5765 5765 5765 5762 5760 5758 5756 5753 5750 5746 5742 5738 5733 5728 5725 5722 5718 5715 5711 5705 5702 5699 5696 5693 5691 5687 5679 5671 5664 5658 5650 5643 5636 5630 5623
5747 5749 5752 5753 5754 5755 5757 5758 5758 5758 5756 5755 5753 5751 5749 5745 5741 5737 5733 5728 5723 5720 5716 5712 5708 5705 5701 5696 5689 5682 5676 5670 5666 5667 5666 5656 5648 5641 5633 5626 5618 5610 5603
5741 5743 5745 5746 5748 5749 5751 5751 5751 5749 5749 5747 5745 5743 5739 5736 5732 5728 5723 5719 5715 5711 5707 5702 5698 5693 5689 5684 5679 5673 5665 5656 5647 5639 5637 5634 5630 5624 5616 5607 5597 5588 5579
5734 5736 5739 5740 5741 5742 5743 5743 5742 5742 5741 5739 5737 5733 5730 5726 5722 5718 5714 5711 5707 5702 5698 5693 5688 5683 5677 5670 5663 5655 5648 5640 5633 5625 5618 5611 5602 5597 5590 5584 5574 5562 5552